STARLINK-11457, 62919

Orbit data source: Space-Track

STARLINK-11457, 62919 is a payload satellite owned by SpaceX/Seattle (US) in LEO that was launched on Sat, 08 Feb 2025 UTC via an FALCON 9 launch vehicle from the Air Force Eastern Test Range (AFETR). Payload-class satellites include a variety of spacecraft equipped with specific instruments for various scientific and technological missions. These include communications satellites like Starlink; space stations such as the ISS; scientific satellites like the Hubble; Earth observation satellites from companies like Planet Labs, Umbra, and HawkEye 360; GPS; miniature CubeSats for education and research; and military/defense satellites.

Loading next visibility...
Identifier
62919, 2025-027N
Orbit
LEO
Country
Flag of USUS
Related business
Manufacturer
SpaceX/Seattle
Mission
Operational Commercial Communications
Bus & Motor
STARLINK V2MD, Unknown motor
Mass
960 kg wet, ~910 kg dry
Launch date (UTC)
2025-02-08 (1 year ago)
Launch vehicle
FALCON 9
Launch site
Air Force Eastern Test Range (AFETR)
Object type
Payload
Rocket body
Debris
Shape & HBR
Box + 2 Pan, 18.1 m
Radar Cross Section
36.964 m², Large (>1 m²)

Expand to show TLE details & history
Last TLE update: 11 hours ago

TLE from 11 hours ago
0 STARLINK-11457
1 62919U 25027N   26037.83758772  .00244867  00000-0  18478-2 0  9999
2 62919  42.9992 173.2906 0002082 285.9689  74.0949 15.70946800 58300
Epoch: 2026-02-06T20:06Z
TLE epoch observation values (Epoch: 2026-02-06T20:06:07.579Z)
Latitude
-0.00006°
Longitude
94.78923°
Altitude
355.577 km
Speed
7.698 km/s
True Right ascension
11h 33m 09s
True Declination
0° 00' 00"
Sunlit
Object was in full shadow at epoch
Visualization orbit readout
Latitude
Unknown
Longitude
Unknown
Altitude
Unknown
Speed
Unknown
Apparent Right ascension
Unknown
Apparent Declination
Unknown
Sunlit
N/A
Visualization observer readout
Local Sidereal Time
08:56:32
Azimuth
Unknown
Elevation
Unknown
Doppler factor
Unknown
Orbital elements
Apogee altitude
359.574 km
Perigee altitude
356.769 km
Semi-major axis
6,736.309 km
Eccentricity
0.00021
Inclination
42.9992°
RAAN
173.2906°
Arg. of periapsis
285.9689°
True anomaly
74.11785°
Mean anomaly
74.0949°
Eccentric anomaly
74.10637°
Mean motion
3.92564 °/min
Orbital period
91.7 mins
BSTAR
0.0018478
Loading maneuver chart data...
Computing Atmospheric mass density...
Loading historical data...
Loading historical data...
Loading historical data...
Loading historical data...
Loading historical data...
Loading historical data...
Loading historical data...

Documentation

Showing up to 5 results
|